W5MAI Weather Reports


time (UTC)temp
C
wind
direction
speed
KPH
gust
KPH
rain 1hr
cm
rain 24hr
cm
rain mn
cm
humidity
%
barometer
mb
20260510082335 21 185 0.0 0.0 0.00 0.00 0.00 84 1013.0
20260510081405 21 185 0.0 4.8 0.00 0.00 0.00 84 1013.0
20260510080335 21 191 1.6 8.0 0.00 0.00 0.00 83 1012.8
20260510075354 21 214 3.2 8.0 0.00 0.00 0.00 83 1012.9
20260510074413 22 202 3.2 9.7 0.00 0.00 0.00 83 1012.9
20260510073336 21 244 4.8 6.4 0.00 0.00 0.00 83 1012.9
20260510072400 22 202 3.2 8.0 0.00 0.00 0.00 83 1012.8
20260510071417 22 216 3.2 6.4 0.00 0.00 0.00 83 1012.9
20260510070333 22 217 1.6 8.0 0.00 0.00 0.00 83 1013.0
20260510065326 22 181 1.6 6.4 0.00 0.00 0.00 83 1012.9
20260510064338 22 191 1.6 4.8 0.00 0.00 0.00 83 1013.0
20260510063342 22 198 1.6 3.2 0.00 0.00 0.00 83 1012.9
20260510062326 22 198 1.6 4.8 0.00 0.00 0.00 82 1012.9
20260510061337 22 198 1.6 6.4 0.00 0.00 0.00 82 1013.1
20260510060323 22 194 0.0 6.4 0.00 0.00 0.00 81 1013.1
20260510055327 23 197 3.2 6.4 0.00 0.00 0.00 81 1013.0
20260510054341 22 177 1.6 8.0 0.00 0.00 0.00 83 1013.0
20260510053324 21 173 4.8 8.0 0.00 0.00 0.00 87 1012.9
20260510052335 20 167 0.0 3.2 0.00 0.00 0.00 88 1012.9
20260510051340 20 140 0.0 0.0 0.00 0.00 0.00 86 1012.8
20260510050327 20 140 0.0 0.0 0.00 0.00 0.00 86 1012.9
20260510045347 21 140 0.0 0.0 0.00 0.00 0.00 85 1012.9
20260510044354 21 140 0.0 0.0 0.00 0.00 0.00 85 1012.8
20260510043429 21 140 0.0 0.0 0.00 0.00 0.00 84 1012.8
20260510042356 21 140 0.0 0.0 0.00 0.00 0.00 82 1012.7
20260510041414 22 140 0.0 0.0 0.00 0.00 0.00 81 1012.6
20260510040324 22 140 0.0 0.0 0.00 0.00 0.00 81 1012.6
20260510035341 22 140 0.0 0.0 0.00 0.00 0.00 80 1012.4
20260510034412 23 140 0.0 0.0 0.00 0.00 0.00 78 1012.4
20260510033329 23 140 0.0 0.0 0.00 0.00 0.00 77 1012.2
20260510032348 24 140 0.0 0.0 0.00 0.00 0.00 75 1012.1
20260510031410 25 140 0.0 0.0 0.00 0.00 0.00 74 1012.1
20260510024402 26 140 0.0 4.8 0.00 0.00 0.00 71 1011.7
20260510023421 26 136 0.0 3.2 0.00 0.00 0.00 71 1011.7
20260510022341 26 157 3.2 9.7 0.00 0.00 0.00 70 1011.6
20260510021418 26 130 4.8 8.0 0.00 0.00 0.00 70 1011.6
20260510020336 26 113 1.6 6.4 0.00 0.00 0.00 68 1011.4
20260510015421 26 100 1.6 6.4 0.00 0.00 0.00 65 1011.3
20260510014351 26 153 1.6 6.4 0.00 0.00 0.00 62 1011.1
20260510013412 27 121 1.6 6.4 0.00 0.00 0.00 62 1010.9
20260510011336 27 136 1.6 4.8 0.00 0.00 0.00 62 1010.7
20260510010410 28 142 3.2 9.7 0.00 0.00 0.00 61 1010.5
20260510005331 28 83 3.2 11.3 0.00 0.00 0.00 61 1010.3
20260510004352 28 120 3.2 11.3 0.00 0.00 0.00 59 1010.2
20260510003422 29 140 4.8 12.9 0.00 0.00 0.00 56 1010.2
20260510002334 30 145 6.4 12.9 0.00 0.00 0.00 56 1010.0
20260510001409 30 136 4.8 9.7 0.00 0.00 0.00 57 1010.0
20260510000344 30 155 1.6 8.0 0.00 0.00 0.00 58 1009.9
20260509235349 30 127 4.8 11.3 0.00 0.00 0.00 58 1009.8
20260509234356 29 135 6.4 12.9 0.00 0.00 0.00 58 1009.8
20260509233327 29 62 8.0 17.7 0.00 0.00 0.00 57 1009.8
20260509232336 29 131 9.7 16.1 0.00 0.00 0.00 59 1009.8
20260509231350 30 122 6.4 20.9 0.00 0.00 0.00 60 1009.8
20260509230420 31 146 9.7 14.5 0.00 0.00 0.00 56 1009.7
20260509225330 31 98 6.4 14.5 0.00 0.00 0.00 55 1009.6
20260509224359 31 185 6.4 25.7 0.00 0.00 0.00 55 1009.7
20260509223408 32 139 3.2 8.0 0.00 0.00 0.00 51 1009.7
20260509222415 32 189 4.8 11.3 0.00 0.00 0.00 53 1009.6
20260509221338 32 195 3.2 12.9 0.00 0.00 0.00 51 1009.7
20260509215358 32 233 1.6 6.4 0.00 0.00 0.00 53 1009.7
20260509214421 32 150 4.8 9.7 0.00 0.00 0.00 54 1009.8
20260509212334 31 196 3.2 8.0 0.00 0.00 0.00 52 1009.9
20260509211410 32 188 4.8 8.0 0.00 0.00 0.00 52 1009.9
20260509210327 31 117 3.2 4.8 0.00 0.00 0.00 53 1010.1
20260509205400 31 257 0.0 1.6 0.00 0.00 0.00 52 1010.3
20260509204334 31 257 0.0 8.0 0.00 0.00 0.00 53 1010.5
20260509203402 31 112 3.2 6.4 0.00 0.00 0.00 54 1010.5
20260509202421 31 164 0.0 4.8 0.00 0.00 0.00 54 1010.7
20260509201338 31 243 4.8 11.3 0.00 0.00 0.00 53 1010.8
20260509200413 32 266 1.6 8.0 0.00 0.00 0.00 54 1010.8
20260509195342 31 260 3.2 12.9 0.00 0.00 0.00 52 1010.9
20260509194401 31 280 1.6 6.4 0.00 0.00 0.00 56 1011.1
20260509193329 31 287 1.6 8.0 0.00 0.00 0.00 56 1011.4
20260509191349 31 250 1.6 4.8 0.00 0.00 0.00 58 1011.9
20260509190414 30 225 1.6 12.9 0.00 0.00 0.00 63 1012.1
20260509185342 30 240 4.8 11.3 0.00 0.00 0.00 62 1012.0
20260509184417 30 269 6.4 17.7 0.00 0.00 0.00 62 1012.0
20260509183337 29 203 3.2 11.3 0.00 0.00 0.00 65 1012.0
20260509182343 29 248 3.2 11.3 0.00 0.00 0.00 64 1012.1
20260509181403 29 286 1.6 12.9 0.00 0.00 0.00 66 1012.4
20260509180329 29 161 1.6 6.4 0.00 0.00 0.00 65 1012.5
20260509175348 28 194 0.0 9.7 0.00 0.00 0.00 71 1012.7
20260509174422 29 123 1.6 4.8 0.00 0.00 0.00 67 1012.7
20260509173344 28 288 0.0 4.8 0.00 0.00 0.00 73 1012.8
20260509172403 28 227 1.6 6.4 0.00 0.00 0.00 70 1013.0
20260509171341 27 283 0.0 6.4 0.00 0.00 0.00 75 1013.0
20260509170336 27 203 4.8 11.3 0.00 0.00 0.00 71 1012.9
20260509165346 27 260 4.8 11.3 0.00 0.00 0.00 72 1012.9
20260509164419 27 168 1.6 6.4 0.00 0.00 0.00 76 1013.1
20260509163413 26 217 3.2 9.7 0.00 0.00 0.00 79 1013.2
20260509162426 26 271 4.8 11.3 0.00 0.00 0.00 81 1013.2
20260509161424 25 205 0.0 4.8 0.00 0.00 0.00 83 1013.4
20260509155356 25 182 1.6 8.0 0.00 0.00 0.00 84 1013.5
20260509154327 25 115 4.8 12.9 0.00 0.00 0.00 85 1013.4
20260509145345 22 223 3.2 6.4 0.00 0.00 0.00 92 1014.0
20260509144421 22 192 1.6 6.4 0.00 0.00 0.00 93 1014.0
20260509143342 22 155 3.2 4.8 0.00 0.00 0.00 93 1013.8
20260509142411 22 38 0.0 1.6 0.00 0.00 0.00 94 1013.8
20260509141332 22 38 0.0 3.2 0.00 0.00 0.00 94 1013.3
20260509140409 22 66 0.0 1.6 0.00 0.00 0.00 95 1013.0
20260509135325 22 66 0.0 0.0 0.00 0.00 0.00 95 1012.8
20260509134338 22 66 0.0 1.6 0.00 0.00 0.00 95 1012.9
20260509133416 22 66 0.0 1.6 0.00 0.00 0.00 95 1013.0
20260509132332 22 66 0.0 1.6 0.00 0.00 0.00 95 1013.0
20260509131402 22 66 0.0 0.0 0.00 0.00 0.00 95 1013.1
20260509130326 22 66 0.0 1.6 0.00 0.00 0.00 95 1013.2
20260509125358 22 66 1.6 3.2 0.00 0.00 0.00 95 1012.9
20260509124417 22 66 0.0 3.2 0.00 0.00 0.00 95 1013.0
20260509122343 22 66 1.6 4.8 0.00 0.00 0.00 95 1012.8
20260509121358 22 73 0.0 6.4 0.00 0.00 0.00 95 1013.2
20260509120411 22 73 0.0 12.9 0.00 0.00 0.00 95 1013.0
20260509115334 22 39 0.0 1.6 0.00 0.00 0.00 95 1013.2
20260509113351 22 22 0.0 6.4 0.00 0.00 0.00 95 1013.1
20260509112410 22 27 0.0 3.2 0.00 0.00 0.00 95 1013.1
20260509111345 22 44 0.0 0.0 0.00 0.00 0.00 95 1013.1
20260509110416 22 115 0.0 0.0 0.00 0.00 0.00 95 1012.8
20260509105337 22 115 0.0 0.0 0.00 0.00 0.00 95 1012.5
20260509104339 22 115 0.0 0.0 0.00 0.00 0.00 95 1012.5
20260509103415 22 115 0.0 0.0 0.00 0.00 0.00 95 1012.7
20260509100400 22 115 0.0 0.0 0.00 0.00 0.00 95 1012.5
20260509095422 22 115 0.0 0.0 0.00 0.00 0.00 95 1012.2
20260509094344 22 115 0.0 0.0 0.00 0.00 0.00 95 1012.1
20260509093419 22 167 0.0 0.0 0.00 0.00 0.00 94 1011.9
20260509092345 22 167 0.0 0.0 0.00 0.00 0.00 94 1011.8
20260509091414 22 167 0.0 0.0 0.00 0.00 0.00 94 1011.9
20260509090323 22 167 0.0 0.0 0.00 0.00 0.00 94 1011.8
20260509085354 22 167 0.0 0.0 0.00 0.00 0.00 94 1011.7
20260509084415 22 167 0.0 1.6 0.00 0.00 0.00 94 1011.6